Time,TemperatureF,DewpointF,PressureIn,WindDirection,WindDirectionDegrees,WindSpeedMPH,WindSpeedGustMPH,Humidity,HourlyPrecipIn,Conditions,Clouds,dailyrainin,SoftwareType,DateUTC
2013-09-24 00:02:00,39.5,37.6,30.18,ENE,65,0.0,0.0,93,0.00,,,0.00,Wunderground v.1.15,2013-09-24 04:02:00,
2013-09-24 00:04:00,39.5,37.6,30.18,ENE,64,0.0,0.0,93,0.00,,,0.00,Wunderground v.1.15,2013-09-24 04:04:00,
2013-09-24 00:06:00,39.4,37.5,30.18,ENE,65,0.0,0.0,93,0.00,,,0.00,Wunderground v.1.15,2013-09-24 04:06:00,
2013-09-24 00:08:00,39.4,37.5,30.18,ENE,64,0.0,0.0,93,0.00,,,0.00,Wunderground v.1.15,2013-09-24 04:08:00,
2013-09-24 00:14:00,39.2,37.3,30.18,ENE,64,0.0,0.0,93,0.00,,,0.00,Wunderground v.1.15,2013-09-24 04:14:00,
2013-09-24 00:19:00,39.1,37.2,30.18,ENE,65,0.0,0.0,93,0.00,,,0.00,Wunderground v.1.15,2013-09-24 04:19:00,
2013-09-24 00:20:00,39.1,37.2,30.18,ENE,65,0.0,0.0,93,0.00,,,0.00,Wunderground v.1.15,2013-09-24 04:20:00,
2013-09-24 00:25:00,38.9,37.0,30.18,ENE,65,0.0,0.0,93,0.00,,,0.00,Wunderground v.1.15,2013-09-24 04:25:00,
2013-09-24 00:31:00,38.8,36.9,30.18,ENE,64,0.0,0.0,93,0.00,,,0.00,Wunderground v.1.15,2013-09-24 04:31:00,
2013-09-24 00:36:00,38.6,36.8,30.18,ENE,65,0.0,0.0,93,0.00,,,0.00,Wunderground v.1.15,2013-09-24 04:36:00,
2013-09-24 00:44:00,38.5,36.7,30.18,ENE,64,0.0,0.0,93,0.00,,,0.00,Wunderground v.1.15,2013-09-24 04:44:00,
2013-09-24 00:50:00,38.5,36.7,30.18,ENE,65,0.0,0.0,93,0.00,,,0.00,Wunderground v.1.15,2013-09-24 04:50:00,
2013-09-24 00:56:00,38.6,36.8,30.18,ENE,64,0.0,0.0,93,0.00,,,0.00,Wunderground v.1.15,2013-09-24 04:56:00,
2013-09-24 01:02:00,38.6,36.8,30.17,ENE,64,0.0,0.0,93,0.00,,,0.00,Wunderground v.1.15,2013-09-24 05:02:00,
2013-09-24 01:08:00,38.8,36.9,30.17,ENE,64,0.0,0.0,93,0.00,,,0.00,Wunderground v.1.15,2013-09-24 05:08:00,
2013-09-24 01:13:00,38.8,36.9,30.18,ENE,65,0.0,0.0,93,0.00,,,0.00,Wunderground v.1.15,2013-09-24 05:13:00,
2013-09-24 01:18:00,38.7,36.9,30.18,ENE,65,0.0,0.0,93,0.00,,,0.00,Wunderground v.1.15,2013-09-24 05:18:00,
2013-09-24 01:23:00,38.5,36.7,30.18,ENE,65,0.0,0.0,93,0.00,,,0.00,Wunderground v.1.15,2013-09-24 05:23:00,
2013-09-24 01:29:00,38.4,36.6,30.18,ENE,65,0.0,0.0,93,0.00,,,0.00,Wunderground v.1.15,2013-09-24 05:29:00,
2013-09-24 01:34:00,38.2,36.4,30.18,ENE,65,0.0,0.0,93,0.00,,,0.00,Wunderground v.1.15,2013-09-24 05:34:00,
2013-09-24 01:39:00,38.1,36.3,30.18,ENE,64,0.0,0.0,93,0.00,,,0.00,Wunderground v.1.15,2013-09-24 05:39:00,
2013-09-24 01:46:00,38.1,36.3,30.18,ENE,65,0.0,0.0,93,0.00,,,0.00,Wunderground v.1.15,2013-09-24 05:46:00,
2013-09-24 01:51:00,38.1,36.3,30.18,ENE,64,0.0,0.0,93,0.00,,,0.00,Wunderground v.1.15,2013-09-24 05:51:00,
2013-09-24 01:57:00,38.2,36.6,30.18,ENE,64,0.0,0.0,94,0.00,,,0.00,Wunderground v.1.15,2013-09-24 05:57:00,
2013-09-24 02:06:00,38.2,36.6,30.18,ENE,65,0.0,0.0,94,0.00,,,0.00,Wunderground v.1.15,2013-09-24 06:06:00,
2013-09-24 02:16:00,38.0,36.4,30.18,ENE,65,0.0,0.0,94,0.00,,,0.00,Wunderground v.1.15,2013-09-24 06:16:00,
2013-09-24 02:23:00,38.0,36.4,30.18,ENE,65,0.0,0.0,94,0.00,,,0.00,Wunderground v.1.15,2013-09-24 06:23:00,
2013-09-24 02:28:00,37.9,36.3,30.18,ENE,65,0.0,0.0,94,0.00,,,0.00,Wunderground v.1.15,2013-09-24 06:28:00,
2013-09-24 02:34:00,37.9,36.3,30.18,ENE,65,0.0,0.0,94,0.00,,,0.00,Wunderground v.1.15,2013-09-24 06:34:00,
2013-09-24 02:39:00,37.8,36.2,30.18,ENE,65,0.0,0.0,94,0.00,,,0.00,Wunderground v.1.15,2013-09-24 06:39:00,
2013-09-24 02:45:00,37.7,36.1,30.18,ENE,64,0.0,0.0,94,0.00,,,0.00,Wunderground v.1.15,2013-09-24 06:45:00,
2013-09-24 02:50:00,37.6,36.0,30.18,ENE,64,0.0,0.0,94,0.00,,,0.00,Wunderground v.1.15,2013-09-24 06:50:00,
2013-09-24 02:56:00,37.5,35.9,30.18,ENE,64,0.0,0.0,94,0.00,,,0.00,Wunderground v.1.15,2013-09-24 06:56:00,
2013-09-24 03:04:00,37.3,35.7,30.18,ENE,65,0.0,0.0,94,0.00,,,0.00,Wunderground v.1.15,2013-09-24 07:04:00,
2013-09-24 03:09:00,37.3,35.7,30.18,ENE,64,0.0,0.0,94,0.00,,,0.00,Wunderground v.1.15,2013-09-24 07:09:00,
2013-09-24 03:15:00,37.3,35.7,30.18,ENE,64,0.0,0.0,94,0.00,,,0.00,Wunderground v.1.15,2013-09-24 07:15:00,
2013-09-24 03:20:00,37.3,35.7,30.18,ENE,65,0.0,0.0,94,0.00,,,0.00,Wunderground v.1.15,2013-09-24 07:20:00,
2013-09-24 03:26:00,37.3,35.7,30.17,ENE,64,0.0,0.0,94,0.00,,,0.00,Wunderground v.1.15,2013-09-24 07:26:00,
2013-09-24 03:35:00,37.3,35.7,30.17,ENE,65,0.0,0.0,94,0.00,,,0.00,Wunderground v.1.15,2013-09-24 07:35:00,
2013-09-24 03:40:00,37.2,35.6,30.18,ENE,64,0.0,0.0,94,0.00,,,0.00,Wunderground v.1.15,2013-09-24 07:40:00,
2013-09-24 03:46:00,37.1,35.5,30.18,ENE,64,0.0,0.0,94,0.00,,,0.00,Wunderground v.1.15,2013-09-24 07:46:00,
2013-09-24 03:54:00,37.0,35.4,30.18,ENE,65,0.0,0.0,94,0.00,,,0.00,Wunderground v.1.15,2013-09-24 07:54:00,
2013-09-24 04:00:00,37.0,35.4,30.18,ENE,65,0.0,0.0,94,0.00,,,0.00,Wunderground v.1.15,2013-09-24 08:00:00,
2013-09-24 04:07:00,37.1,35.5,30.17,ENE,65,0.0,0.0,94,0.00,,,0.00,Wunderground v.1.15,2013-09-24 08:07:00,
2013-09-24 04:14:00,37.0,35.4,30.17,ENE,65,0.0,0.0,94,0.00,,,0.00,Wunderground v.1.15,2013-09-24 08:14:00,
2013-09-24 04:19:00,37.0,35.4,30.18,ENE,64,0.0,0.0,94,0.00,,,0.00,Wunderground v.1.15,2013-09-24 08:19:00,
2013-09-24 04:24:00,36.9,35.3,30.18,ENE,65,0.0,0.0,94,0.00,,,0.00,Wunderground v.1.15,2013-09-24 08:24:00,
2013-09-24 04:30:00,36.9,35.3,30.18,ENE,64,0.0,0.0,94,0.00,,,0.00,Wunderground v.1.15,2013-09-24 08:30:00,
2013-09-24 04:36:00,37.0,35.4,30.18,ENE,64,0.0,0.0,94,0.00,,,0.00,Wunderground v.1.15,2013-09-24 08:36:00,
2013-09-24 04:41:00,37.2,35.6,30.18,ENE,64,0.0,0.0,94,0.00,,,0.00,Wunderground v.1.15,2013-09-24 08:41:00,
2013-09-24 04:46:00,37.5,35.9,30.18,ENE,65,0.0,0.0,94,0.00,,,0.00,Wunderground v.1.15,2013-09-24 08:46:00,
2013-09-24 04:54:00,37.7,36.4,30.18,ENE,65,0.0,0.0,95,0.00,,,0.00,Wunderground v.1.15,2013-09-24 08:54:00,
2013-09-24 05:00:00,37.7,36.4,30.18,ENE,64,0.0,0.0,95,0.00,,,0.00,Wunderground v.1.15,2013-09-24 09:00:00,
2013-09-24 05:05:00,37.7,36.1,30.18,ENE,65,0.0,0.0,94,0.00,,,0.00,Wunderground v.1.15,2013-09-24 09:05:00,
2013-09-24 05:11:00,37.6,36.0,30.18,ENE,64,0.0,0.0,94,0.00,,,0.00,Wunderground v.1.15,2013-09-24 09:11:00,
2013-09-24 05:17:00,37.7,36.4,30.18,ENE,65,0.0,0.0,95,0.00,,,0.00,Wunderground v.1.15,2013-09-24 09:17:00,
2013-09-24 05:23:00,37.6,36.0,30.18,ENE,65,0.0,0.0,94,0.00,,,0.00,Wunderground v.1.15,2013-09-24 09:23:00,
2013-09-24 05:28:00,37.5,35.9,30.18,ENE,64,0.0,0.0,94,0.00,,,0.00,Wunderground v.1.15,2013-09-24 09:28:00,
2013-09-24 05:35:00,37.9,36.6,30.18,ENE,64,0.0,0.0,95,0.00,,,0.00,Wunderground v.1.15,2013-09-24 09:35:00,
2013-09-24 05:40:00,38.5,37.2,30.18,ENE,64,0.0,0.0,95,0.00,,,0.00,Wunderground v.1.15,2013-09-24 09:40:00,
2013-09-24 05:46:00,38.7,37.4,30.18,ENE,65,0.0,0.0,95,0.00,,,0.00,Wunderground v.1.15,2013-09-24 09:46:00,
2013-09-24 05:53:00,38.7,37.4,30.18,ENE,64,0.0,0.0,95,0.00,,,0.00,Wunderground v.1.15,2013-09-24 09:53:00,
2013-09-24 05:58:00,38.5,37.2,30.18,ENE,65,0.0,0.0,95,0.00,,,0.00,Wunderground v.1.15,2013-09-24 09:58:00,
2013-09-24 06:03:00,38.2,36.6,30.18,ENE,65,0.0,0.0,94,0.00,,,0.00,Wunderground v.1.15,2013-09-24 10:03:00,
2013-09-24 06:09:00,38.0,36.4,30.18,ENE,65,0.0,0.0,94,0.00,,,0.00,Wunderground v.1.15,2013-09-24 10:09:00,
2013-09-24 06:15:00,37.7,36.1,30.18,ENE,65,0.0,0.0,94,0.00,,,0.00,Wunderground v.1.15,2013-09-24 10:15:00,
2013-09-24 06:20:00,37.6,36.0,30.18,ENE,65,0.0,0.0,94,0.00,,,0.00,Wunderground v.1.15,2013-09-24 10:20:00,
2013-09-24 06:26:00,37.5,35.9,30.18,ENE,65,0.0,0.0,94,0.00,,,0.00,Wunderground v.1.15,2013-09-24 10:26:00,
2013-09-24 06:34:00,37.3,35.7,30.18,ENE,64,0.0,0.0,94,0.00,,,0.00,Wunderground v.1.15,2013-09-24 10:34:00,
2013-09-24 06:40:00,37.2,35.6,30.18,ENE,64,0.0,0.0,94,0.00,,,0.00,Wunderground v.1.15,2013-09-24 10:40:00,
2013-09-24 06:45:00,37.3,36.0,30.18,ENE,65,0.0,0.0,95,0.00,,,0.00,Wunderground v.1.15,2013-09-24 10:45:00,
2013-09-24 06:54:00,37.2,35.9,30.18,ENE,65,0.0,0.0,95,0.00,,,0.00,Wunderground v.1.15,2013-09-24 10:54:00,
2013-09-24 06:59:00,37.2,35.9,30.18,ENE,64,0.0,0.0,95,0.00,,,0.00,Wunderground v.1.15,2013-09-24 10:59:00,
2013-09-24 07:05:00,37.4,36.1,30.19,ENE,65,0.0,0.0,95,0.00,,,0.00,Wunderground v.1.15,2013-09-24 11:05:00,
2013-09-24 07:10:00,37.4,36.1,30.19,ENE,65,0.0,0.0,95,0.00,,,0.00,Wunderground v.1.15,2013-09-24 11:10:00,
2013-09-24 07:15:00,37.4,36.1,30.19,ENE,65,0.0,0.0,95,0.00,,,0.00,Wunderground v.1.15,2013-09-24 11:15:00,
2013-09-24 07:22:00,37.3,36.0,30.19,ENE,65,0.0,0.0,95,0.00,,,0.00,Wunderground v.1.15,2013-09-24 11:22:00,
2013-09-24 07:28:00,37.3,36.0,30.19,ENE,64,0.0,0.0,95,0.00,,,0.00,Wunderground v.1.15,2013-09-24 11:28:00,
2013-09-24 07:34:00,37.1,35.8,30.19,ENE,65,0.0,0.0,95,0.00,,,0.00,Wunderground v.1.15,2013-09-24 11:34:00,
2013-09-24 07:40:00,37.0,35.4,30.19,ENE,65,0.0,0.0,94,0.00,,,0.00,Wunderground v.1.15,2013-09-24 11:40:00,
2013-09-24 07:45:00,36.9,35.3,30.19,ENE,65,0.0,0.0,94,0.00,,,0.00,Wunderground v.1.15,2013-09-24 11:45:00,
2013-09-24 07:51:00,36.9,35.3,30.19,ENE,65,0.0,0.0,94,0.00,,,0.00,Wunderground v.1.15,2013-09-24 11:51:00,
2013-09-24 07:57:00,36.8,35.5,30.19,ENE,64,0.0,0.0,95,0.00,,,0.00,Wunderground v.1.15,2013-09-24 11:57:00,
2013-09-24 08:03:00,37.1,35.8,30.19,ENE,65,0.0,0.0,95,0.00,,,0.00,Wunderground v.1.15,2013-09-24 12:03:00,
2013-09-24 08:08:00,37.3,36.0,30.19,ENE,65,0.0,0.0,95,0.00,,,0.00,Wunderground v.1.15,2013-09-24 12:08:00,
2013-09-24 08:13:00,37.7,36.4,30.19,ENE,65,0.0,0.0,95,0.00,,,0.00,Wunderground v.1.15,2013-09-24 12:13:00,
2013-09-24 08:18:00,38.0,36.7,30.19,ENE,64,0.0,0.0,95,0.00,,,0.00,Wunderground v.1.15,2013-09-24 12:18:00,
2013-09-24 08:25:00,38.6,37.3,30.19,ENE,65,0.0,0.0,95,0.00,,,0.00,Wunderground v.1.15,2013-09-24 12:25:00,
2013-09-24 08:31:00,39.4,38.1,30.19,ENE,65,0.0,0.0,95,0.00,,,0.00,Wunderground v.1.15,2013-09-24 12:31:00,
2013-09-24 08:36:00,40.6,39.5,30.19,ENE,65,0.0,0.0,96,0.00,,,0.00,Wunderground v.1.15,2013-09-24 12:36:00,
2013-09-24 08:43:00,42.4,41.3,30.19,ENE,65,0.0,0.0,96,0.00,,,0.00,Wunderground v.1.15,2013-09-24 12:43:00,
2013-09-24 08:48:00,43.6,42.5,30.19,ENE,65,0.0,0.0,96,0.00,,,0.00,Wunderground v.1.15,2013-09-24 12:48:00,
2013-09-24 08:53:00,44.8,43.7,30.19,ENE,65,0.0,0.0,96,0.00,,,0.00,Wunderground v.1.15,2013-09-24 12:53:00,
2013-09-24 08:59:00,46.0,44.9,30.19,ENE,65,0.0,0.0,96,0.00,,,0.00,Wunderground v.1.15,2013-09-24 12:59:00,
2013-09-24 09:05:00,47.2,46.4,30.19,ENE,65,0.0,0.0,97,0.00,,,0.00,Wunderground v.1.15,2013-09-24 13:05:00,
2013-09-24 09:15:00,49.2,48.4,30.19,ENE,65,0.0,0.0,97,0.00,,,0.00,Wunderground v.1.15,2013-09-24 13:15:00,
2013-09-24 09:20:00,50.0,48.9,30.19,ESE,102,0.0,2.0,96,0.00,,,0.00,Wunderground v.1.15,2013-09-24 13:20:00,
2013-09-24 09:25:00,50.5,49.7,30.19,SSE,153,1.0,4.0,97,0.00,,,0.00,Wunderground v.1.15,2013-09-24 13:25:00,
2013-09-24 09:36:00,51.5,50.4,30.19,SE,136,2.0,2.0,96,0.00,,,0.00,Wunderground v.1.15,2013-09-24 13:36:00,
2013-09-24 09:46:00,53.1,50.8,30.18,SSE,161,1.0,5.0,92,0.00,,,0.00,Wunderground v.1.15,2013-09-24 13:46:00,
2013-09-24 09:54:00,54.0,50.8,30.18,SSE,161,2.0,3.0,89,0.00,,,0.00,Wunderground v.1.15,2013-09-24 13:54:00,
2013-09-24 10:00:00,54.9,50.8,30.18,South,169,1.0,4.0,86,0.00,,,0.00,Wunderground v.1.15,2013-09-24 14:00:00,
2013-09-24 10:05:00,55.7,50.9,30.18,SE,134,1.0,4.0,84,0.00,,,0.00,Wunderground v.1.15,2013-09-24 14:05:00,
2013-09-24 10:13:00,56.9,51.1,30.18,SE,134,1.0,2.0,81,0.00,,,0.00,Wunderground v.1.15,2013-09-24 14:13:00,
2013-09-24 10:18:00,57.6,50.1,30.18,SSE,163,1.0,1.0,76,0.00,,,0.00,Wunderground v.1.15,2013-09-24 14:18:00,
2013-09-24 10:23:00,58.2,50.7,30.18,SSE,154,1.0,1.0,76,0.00,,,0.00,Wunderground v.1.15,2013-09-24 14:23:00,
2013-09-24 10:29:00,59.0,50.4,30.18,SSE,156,1.0,1.0,73,0.00,,,0.00,Wunderground v.1.15,2013-09-24 14:29:00,
2013-09-24 10:35:00,59.2,49.8,30.18,SSE,157,1.0,3.0,71,0.00,,,0.00,Wunderground v.1.15,2013-09-24 14:35:00,
2013-09-24 10:40:00,59.7,49.9,30.18,SE,133,1.0,1.0,70,0.00,,,0.00,Wunderground v.1.15,2013-09-24 14:40:00,
2013-09-24 10:45:00,60.0,49.8,30.18,SSE,148,1.0,1.0,69,0.00,,,0.00,Wunderground v.1.15,2013-09-24 14:45:00,
2013-09-24 10:51:00,60.4,49.8,30.18,South,180,1.0,3.0,68,0.00,,,0.00,Wunderground v.1.15,2013-09-24 14:51:00,
2013-09-24 10:56:00,60.6,49.6,30.18,SSE,159,1.0,3.0,67,0.00,,,0.00,Wunderground v.1.15,2013-09-24 14:56:00,
2013-09-24 11:03:00,61.3,49.8,30.17,SE,131,1.0,4.0,66,0.00,,,0.00,Wunderground v.1.15,2013-09-24 15:03:00,
2013-09-24 11:08:00,61.3,49.0,30.17,SE,140,1.0,1.0,64,0.00,,,0.00,Wunderground v.1.15,2013-09-24 15:08:00,
2013-09-24 11:13:00,61.4,49.1,30.17,SSE,150,1.0,3.0,64,0.00,,,0.00,Wunderground v.1.15,2013-09-24 15:13:00,
2013-09-24 11:19:00,61.8,49.5,30.17,East,98,1.0,2.0,64,0.00,,,0.00,Wunderground v.1.15,2013-09-24 15:19:00,
2013-09-24 11:24:00,62.0,49.3,30.17,SSE,163,1.0,5.0,63,0.00,,,0.00,Wunderground v.1.15,2013-09-24 15:24:00,
2013-09-24 11:30:00,61.8,49.1,30.17,SE,140,1.0,5.0,63,0.00,,,0.00,Wunderground v.1.15,2013-09-24 15:30:00,
2013-09-24 11:35:00,62.0,49.7,30.17,SSE,149,1.0,5.0,64,0.00,,,0.00,Wunderground v.1.15,2013-09-24 15:35:00,
2013-09-24 11:40:00,62.2,49.4,30.17,SSE,160,1.0,2.0,63,0.00,,,0.00,Wunderground v.1.15,2013-09-24 15:40:00,
2013-09-24 11:46:00,62.2,49.4,30.17,SSE,159,2.0,3.0,63,0.00,,,0.00,Wunderground v.1.15,2013-09-24 15:46:00,
2013-09-24 11:53:00,62.2,49.9,30.16,SSE,153,1.0,1.0,64,0.00,,,0.00,Wunderground v.1.15,2013-09-24 15:53:00,
2013-09-24 11:58:00,62.7,50.8,30.16,South,173,1.0,2.0,65,0.00,,,0.00,Wunderground v.1.15,2013-09-24 15:58:00,
2013-09-24 12:04:00,63.0,50.6,30.16,SSW,196,1.0,4.0,64,0.00,,,0.00,Wunderground v.1.15,2013-09-24 16:04:00,
2013-09-24 12:09:00,62.8,50.0,30.16,SSE,152,1.0,1.0,63,0.00,,,0.00,Wunderground v.1.15,2013-09-24 16:09:00,
2013-09-24 12:16:00,62.6,50.7,30.15,ESE,102,1.0,2.0,65,0.00,,,0.00,Wunderground v.1.15,2013-09-24 16:16:00,
2013-09-24 12:26:00,62.9,49.7,30.15,ENE,76,1.0,1.0,62,0.00,,,0.00,Wunderground v.1.15,2013-09-24 16:26:00,
2013-09-24 12:37:00,63.3,50.5,30.14,ENE,62,1.0,3.0,63,0.00,,,0.00,Wunderground v.1.15,2013-09-24 16:37:00,
2013-09-24 12:46:00,63.9,49.7,30.14,SE,141,1.0,1.0,60,0.00,,,0.00,Wunderground v.1.15,2013-09-24 16:46:00,
2013-09-24 12:53:00,64.0,49.4,30.14,NNE,22,1.0,2.0,59,0.00,,,0.00,Wunderground v.1.15,2013-09-24 16:53:00,
2013-09-24 12:59:00,63.7,50.0,30.13,NNE,30,2.0,2.0,61,0.00,,,0.00,Wunderground v.1.15,2013-09-24 16:59:00,
2013-09-24 13:04:00,63.7,49.5,30.13,SE,141,1.0,4.0,60,0.00,,,0.00,Wunderground v.1.15,2013-09-24 17:04:00,
2013-09-24 13:10:00,63.7,50.4,30.12,East,80,1.0,2.0,62,0.00,,,0.00,Wunderground v.1.15,2013-09-24 17:10:00,
2013-09-24 13:16:00,64.2,50.5,30.12,South,182,1.0,2.0,61,0.00,,,0.00,Wunderground v.1.15,2013-09-24 17:16:00,
2013-09-24 13:23:00,64.3,50.1,30.12,ESE,109,2.0,4.0,60,0.00,,,0.00,Wunderground v.1.15,2013-09-24 17:23:00,
2013-09-24 13:28:00,64.6,50.4,30.12,SSE,162,1.0,4.0,60,0.00,,,0.00,Wunderground v.1.15,2013-09-24 17:28:00,
2013-09-24 13:33:00,65.0,50.8,30.12,SW,227,2.0,3.0,60,0.00,,,0.00,Wunderground v.1.15,2013-09-24 17:33:00,
2013-09-24 13:39:00,65.2,50.5,30.11,NE,49,2.0,3.0,59,0.00,,,0.00,Wunderground v.1.15,2013-09-24 17:39:00,
2013-09-24 13:45:00,65.7,51.0,30.11,SE,133,1.0,9.0,59,0.00,,,0.00,Wunderground v.1.15,2013-09-24 17:45:00,
2013-09-24 13:51:00,65.6,50.9,30.10,NNE,26,1.0,2.0,59,0.00,,,0.00,Wunderground v.1.15,2013-09-24 17:51:00,
2013-09-24 13:57:00,65.4,51.1,30.11,East,95,1.0,3.0,60,0.00,,,0.00,Wunderground v.1.15,2013-09-24 17:57:00,
2013-09-24 14:05:00,65.7,51.0,30.10,ENE,78,2.0,4.0,59,0.00,,,0.00,Wunderground v.1.15,2013-09-24 18:05:00,
2013-09-24 14:10:00,65.7,50.0,30.10,North,355,2.0,5.0,57,0.00,,,0.00,Wunderground v.1.15,2013-09-24 18:10:00,
2013-09-24 14:16:00,65.8,52.0,30.10,NE,53,1.0,5.0,61,0.00,,,0.00,Wunderground v.1.15,2013-09-24 18:16:00,
2013-09-24 14:39:00,67.3,50.1,30.09,SE,144,2.0,2.0,54,0.00,,,0.00,Wunderground v.1.15,2013-09-24 18:39:00,
2013-09-24 14:47:00,67.1,50.9,30.09,ENE,60,1.0,3.0,56,0.00,,,0.00,Wunderground v.1.15,2013-09-24 18:47:00,
2013-09-24 14:53:00,67.4,51.6,30.09,ESE,117,1.0,2.0,57,0.00,,,0.00,Wunderground v.1.15,2013-09-24 18:53:00,
2013-09-24 14:58:00,67.8,51.0,30.08,ENE,71,1.0,1.0,55,0.00,,,0.00,Wunderground v.1.15,2013-09-24 18:58:00,
2013-09-24 15:04:00,68.1,50.8,30.08,SSW,205,1.0,2.0,54,0.00,,,0.00,Wunderground v.1.15,2013-09-24 19:04:00,
2013-09-24 15:10:00,68.1,51.3,30.08,South,187,1.0,1.0,55,0.00,,,0.00,Wunderground v.1.15,2013-09-24 19:10:00,
2013-09-24 15:15:00,68.0,50.7,30.08,SE,134,2.0,6.0,54,0.00,,,0.00,Wunderground v.1.15,2013-09-24 19:15:00,
2013-09-24 15:20:00,67.9,51.1,30.08,South,176,2.0,2.0,55,0.00,,,0.00,Wunderground v.1.15,2013-09-24 19:20:00,
2013-09-24 15:26:00,68.1,51.8,30.07,SW,219,2.0,4.0,56,0.00,,,0.00,Wunderground v.1.15,2013-09-24 19:26:00,
2013-09-24 15:34:00,68.5,50.7,30.07,ENE,59,2.0,2.0,53,0.00,,,0.00,Wunderground v.1.15,2013-09-24 19:34:00,
2013-09-24 15:40:00,68.6,51.3,30.07,South,184,1.0,1.0,54,0.00,,,0.00,Wunderground v.1.15,2013-09-24 19:40:00,
2013-09-24 15:45:00,68.7,50.9,30.06,SE,146,1.0,3.0,53,0.00,,,0.00,Wunderground v.1.15,2013-09-24 19:45:00,
2013-09-24 15:53:00,68.4,50.1,30.06,South,187,2.0,4.0,52,0.00,,,0.00,Wunderground v.1.15,2013-09-24 19:53:00,
2013-09-24 15:59:00,68.6,50.8,30.06,ENE,71,2.0,2.0,53,0.00,,,0.00,Wunderground v.1.15,2013-09-24 19:59:00,
2013-09-24 16:04:00,69.0,51.2,30.06,SE,141,1.0,2.0,53,0.00,,,0.00,Wunderground v.1.15,2013-09-24 20:04:00,
2013-09-24 16:09:00,69.2,51.3,30.06,SE,140,2.0,6.0,53,0.00,,,0.00,Wunderground v.1.15,2013-09-24 20:09:00,
2013-09-24 16:15:00,69.0,51.7,30.06,SE,140,2.0,6.0,54,0.00,,,0.00,Wunderground v.1.15,2013-09-24 20:15:00,
2013-09-24 16:20:00,69.2,51.3,30.06,South,182,1.0,1.0,53,0.00,,,0.00,Wunderground v.1.15,2013-09-24 20:20:00,
2013-09-24 16:26:00,69.2,51.8,30.06,East,92,1.0,1.0,54,0.00,,,0.00,Wunderground v.1.15,2013-09-24 20:26:00,
2013-09-24 16:37:00,68.6,50.3,30.05,SSW,202,2.0,2.0,52,0.00,,,0.00,Wunderground v.1.15,2013-09-24 20:37:00,
2013-09-24 16:49:00,68.9,51.1,30.05,SSE,149,1.0,3.0,53,0.00,,,0.00,Wunderground v.1.15,2013-09-24 20:49:00,
2013-09-24 16:54:00,68.9,51.1,30.05,SE,125,1.0,2.0,53,0.00,,,0.00,Wunderground v.1.15,2013-09-24 20:54:00,
2013-09-24 17:00:00,68.7,50.4,30.05,SW,223,2.0,3.0,52,0.00,,,0.00,Wunderground v.1.15,2013-09-24 21:00:00,
2013-09-24 17:06:00,68.6,50.8,30.05,South,190,2.0,3.0,53,0.00,,,0.00,Wunderground v.1.15,2013-09-24 21:06:00,
2013-09-24 17:14:00,68.4,50.6,30.05,South,188,2.0,3.0,53,0.00,,,0.00,Wunderground v.1.15,2013-09-24 21:14:00,
2013-09-24 17:20:00,68.5,50.7,30.05,SSW,200,2.0,2.0,53,0.00,,,0.00,Wunderground v.1.15,2013-09-24 21:20:00,
2013-09-24 17:27:00,68.8,51.0,30.05,SSW,200,1.0,2.0,53,0.00,,,0.00,Wunderground v.1.15,2013-09-24 21:27:00,
2013-09-24 17:33:00,68.8,51.0,30.05,South,179,1.0,2.0,53,0.00,,,0.00,Wunderground v.1.15,2013-09-24 21:33:00,
2013-09-24 17:38:00,68.7,50.9,30.05,SE,133,1.0,1.0,53,0.00,,,0.00,Wunderground v.1.15,2013-09-24 21:38:00,
2013-09-24 17:43:00,68.6,50.8,30.05,SSE,148,1.0,2.0,53,0.00,,,0.00,Wunderground v.1.15,2013-09-24 21:43:00,
2013-09-24 17:48:00,68.6,50.3,30.05,SSE,149,1.0,1.0,52,0.00,,,0.00,Wunderground v.1.15,2013-09-24 21:48:00,
2013-09-24 17:53:00,68.6,50.3,30.05,SSE,149,0.0,1.0,52,0.00,,,0.00,Wunderground v.1.15,2013-09-24 21:53:00,
2013-09-24 17:59:00,68.7,50.9,30.05,SE,144,0.0,3.0,53,0.00,,,0.00,Wunderground v.1.15,2013-09-24 21:59:00,
2013-09-24 18:04:00,68.3,50.5,30.05,SSE,155,1.0,3.0,53,0.00,,,0.00,Wunderground v.1.15,2013-09-24 22:04:00,
2013-09-24 18:09:00,67.9,50.1,30.05,SSE,156,1.0,2.0,53,0.00,,,0.00,Wunderground v.1.15,2013-09-24 22:09:00,
2013-09-24 18:15:00,67.6,50.4,30.05,SSE,155,1.0,2.0,54,0.00,,,0.00,Wunderground v.1.15,2013-09-24 22:15:00,
2013-09-24 18:23:00,67.1,50.9,30.05,SSE,158,1.0,1.0,56,0.00,,,0.00,Wunderground v.1.15,2013-09-24 22:23:00,
2013-09-24 18:29:00,66.6,49.9,30.05,SSE,158,0.0,1.0,55,0.00,,,0.00,Wunderground v.1.15,2013-09-24 22:29:00,
2013-09-24 18:34:00,66.2,50.0,30.05,SSE,157,0.0,1.0,56,0.00,,,0.00,Wunderground v.1.15,2013-09-24 22:34:00,
2013-09-24 18:40:00,65.7,50.0,30.05,SE,146,1.0,4.0,57,0.00,,,0.00,Wunderground v.1.15,2013-09-24 22:40:00,
2013-09-24 18:46:00,65.3,50.1,30.04,SE,144,1.0,4.0,58,0.00,,,0.00,Wunderground v.1.15,2013-09-24 22:46:00,
2013-09-24 18:55:00,64.6,49.9,30.03,SSE,149,0.0,1.0,59,0.00,,,0.00,Wunderground v.1.15,2013-09-24 22:55:00,
2013-09-24 19:02:00,64.0,49.8,30.03,SSE,149,0.0,0.0,60,0.00,,,0.00,Wunderground v.1.15,2013-09-24 23:02:00,
2013-09-24 19:07:00,63.6,49.9,30.03,SSE,149,0.0,0.0,61,0.00,,,0.00,Wunderground v.1.15,2013-09-24 23:07:00,
2013-09-24 19:12:00,63.2,49.5,30.04,SSE,149,0.0,0.0,61,0.00,,,0.00,Wunderground v.1.15,2013-09-24 23:12:00,
2013-09-24 19:17:00,62.7,49.5,30.04,SSE,150,0.0,0.0,62,0.00,,,0.00,Wunderground v.1.15,2013-09-24 23:17:00,
2013-09-24 19:23:00,62.2,49.4,30.03,SSE,150,0.0,0.0,63,0.00,,,0.00,Wunderground v.1.15,2013-09-24 23:23:00,
2013-09-24 19:29:00,61.5,49.6,30.04,SSE,150,0.0,0.0,65,0.00,,,0.00,Wunderground v.1.15,2013-09-24 23:29:00,
2013-09-24 19:34:00,60.9,49.9,30.03,SSE,150,0.0,0.0,67,0.00,,,0.00,Wunderground v.1.15,2013-09-24 23:34:00,
2013-09-24 19:40:00,60.1,49.9,30.03,SSE,150,0.0,0.0,69,0.00,,,0.00,Wunderground v.1.15,2013-09-24 23:40:00,
2013-09-24 19:45:00,59.4,49.6,30.03,SSE,150,0.0,0.0,70,0.00,,,0.00,Wunderground v.1.15,2013-09-24 23:45:00,
2013-09-24 19:51:00,58.5,49.5,30.03,SSE,150,0.0,0.0,72,0.00,,,0.00,Wunderground v.1.15,2013-09-24 23:51:00,
2013-09-24 19:56:00,57.7,49.1,30.04,SSE,150,0.0,0.0,73,0.00,,,0.00,Wunderground v.1.15,2013-09-24 23:56:00,
2013-09-24 20:04:00,56.3,48.5,30.04,SSE,150,0.0,0.0,75,0.00,,,0.00,Wunderground v.1.15,2013-09-25 00:04:00,
2013-09-24 20:10:00,55.7,48.2,30.04,SSE,150,0.0,0.0,76,0.00,,,0.00,Wunderground v.1.15,2013-09-25 00:10:00,
2013-09-24 20:15:00,55.2,48.1,30.03,SSE,150,0.0,0.0,77,0.00,,,0.00,Wunderground v.1.15,2013-09-25 00:15:00,
2013-09-24 20:20:00,54.6,48.2,30.03,SSE,150,0.0,0.0,79,0.00,,,0.00,Wunderground v.1.15,2013-09-25 00:20:00,
2013-09-24 20:26:00,53.9,47.9,30.03,SSE,150,0.0,0.0,80,0.00,,,0.00,Wunderground v.1.15,2013-09-25 00:26:00,
2013-09-24 20:34:00,53.0,47.7,30.03,SSE,150,0.0,0.0,82,0.00,,,0.00,Wunderground v.1.15,2013-09-25 00:34:00,
2013-09-24 20:40:00,52.5,47.2,30.03,SSE,150,0.0,0.0,82,0.00,,,0.00,Wunderground v.1.15,2013-09-25 00:40:00,
2013-09-24 20:45:00,52.0,47.0,30.03,SSE,150,0.0,0.0,83,0.00,,,0.00,Wunderground v.1.15,2013-09-25 00:45:00,
2013-09-24 20:54:00,51.3,46.9,30.03,SSE,150,0.0,0.0,85,0.00,,,0.00,Wunderground v.1.15,2013-09-25 00:54:00,
2013-09-24 21:00:00,50.8,46.5,30.03,SSE,150,0.0,0.0,85,0.00,,,0.00,Wunderground v.1.15,2013-09-25 01:00:00,
2013-09-24 21:06:00,50.4,46.4,30.04,SSE,150,0.0,0.0,86,0.00,,,0.00,Wunderground v.1.15,2013-09-25 01:06:00,
2013-09-24 21:14:00,49.8,46.1,30.03,SSE,150,0.0,0.0,87,0.00,,,0.00,Wunderground v.1.15,2013-09-25 01:14:00,
2013-09-24 21:19:00,49.5,45.8,30.04,SSE,150,0.0,0.0,87,0.00,,,0.00,Wunderground v.1.15,2013-09-25 01:19:00,
2013-09-24 21:25:00,49.2,45.8,30.04,SSE,150,0.0,0.0,88,0.00,,,0.00,Wunderground v.1.15,2013-09-25 01:25:00,
2013-09-24 21:33:00,48.7,45.3,30.03,SSE,150,0.0,0.0,88,0.00,,,0.00,Wunderground v.1.15,2013-09-25 01:33:00,
2013-09-24 21:39:00,48.3,44.9,30.03,SSE,150,0.0,0.0,88,0.00,,,0.00,Wunderground v.1.15,2013-09-25 01:39:00,
2013-09-24 21:45:00,48.0,44.9,30.03,SSE,150,0.0,0.0,89,0.00,,,0.00,Wunderground v.1.15,2013-09-25 01:45:00,
2013-09-24 21:50:00,47.7,44.6,30.03,SSE,150,0.0,0.0,89,0.00,,,0.00,Wunderground v.1.15,2013-09-25 01:50:00,
2013-09-24 21:55:00,47.4,44.3,30.03,SSE,150,0.0,0.0,89,0.00,,,0.00,Wunderground v.1.15,2013-09-25 01:55:00,
2013-09-24 22:02:00,47.1,44.3,30.03,SSE,150,0.0,0.0,90,0.00,,,0.00,Wunderground v.1.15,2013-09-25 02:02:00,
2013-09-24 22:07:00,47.1,44.6,30.04,SSE,150,0.0,0.0,91,0.00,,,0.00,Wunderground v.1.15,2013-09-25 02:07:00,
2013-09-24 22:13:00,47.2,45.0,30.04,SSE,150,0.0,0.0,92,0.00,,,0.00,Wunderground v.1.15,2013-09-25 02:13:00,
2013-09-24 22:18:00,47.1,44.9,30.03,SSE,150,0.0,0.0,92,0.00,,,0.00,Wunderground v.1.15,2013-09-25 02:18:00,
2013-09-24 22:25:00,46.9,44.7,30.03,SSE,150,0.0,0.0,92,0.00,,,0.00,Wunderground v.1.15,2013-09-25 02:25:00,
2013-09-24 22:30:00,46.8,44.6,30.04,SSE,150,0.0,0.0,92,0.00,,,0.00,Wunderground v.1.15,2013-09-25 02:30:00,
2013-09-24 22:35:00,46.7,44.5,30.03,SSE,150,0.0,0.0,92,0.00,,,0.00,Wunderground v.1.15,2013-09-25 02:35:00,
2013-09-24 22:41:00,46.6,44.4,30.04,SSE,150,0.0,0.0,92,0.00,,,0.00,Wunderground v.1.15,2013-09-25 02:41:00,
2013-09-24 22:47:00,46.4,44.2,30.04,SSE,150,0.0,0.0,92,0.00,,,0.00,Wunderground v.1.15,2013-09-25 02:47:00,
2013-09-24 22:56:00,46.1,43.9,30.04,SSE,150,0.0,0.0,92,0.00,,,0.00,Wunderground v.1.15,2013-09-25 02:56:00,
2013-09-24 23:03:00,46.0,43.8,30.03,SSE,150,0.0,0.0,92,0.00,,,0.00,Wunderground v.1.15,2013-09-25 03:03:00,
2013-09-24 23:08:00,45.9,43.7,30.04,SSE,150,0.0,0.0,92,0.00,,,0.00,Wunderground v.1.15,2013-09-25 03:08:00,
2013-09-24 23:16:00,45.9,44.0,30.04,SSE,150,0.0,0.0,93,0.00,,,0.00,Wunderground v.1.15,2013-09-25 03:16:00,
2013-09-24 23:27:00,46.0,44.1,30.05,SSE,150,0.0,0.0,93,0.00,,,0.00,Wunderground v.1.15,2013-09-25 03:27:00,
2013-09-24 23:35:00,45.8,43.9,30.05,SSE,150,0.0,0.0,93,0.00,,,0.00,Wunderground v.1.15,2013-09-25 03:35:00,
2013-09-24 23:40:00,45.6,43.7,30.04,SSE,150,0.0,0.0,93,0.00,,,0.00,Wunderground v.1.15,2013-09-25 03:40:00,
2013-09-24 23:46:00,45.6,43.7,30.05,SSE,150,0.0,0.0,93,0.00,,,0.00,Wunderground v.1.15,2013-09-25 03:46:00,
2013-09-24 23:52:00,45.7,43.8,30.04,SSE,150,0.0,0.0,93,0.00,,,0.00,Wunderground v.1.15,2013-09-25 03:52:00,
2013-09-24 23:58:00,45.6,43.7,30.05,SSE,150,0.0,0.0,93,0.00,,,0.00,Wunderground v.1.15,2013-09-25 03:58:00,